Content
SEND FEEDBACK

Daily
Averages
Monthly
Summary
United States of America

WEST PALM BEACH, FLORIDA


Home > North America > United States > Florida
Elevation: 18 feet     Latitude: 26 41N     Longitude: 080 07W

WEATHER
 
SELECT A DAY
Number of Records: 193,398;   Date Range: 1/1/95 - 10/20/14
 
SHARE

PRINT THIS DATA

[ ← Previous Day ]
WEATHER ALMANAC - APRIL 25, 2014
[ Next Day → ]
[ °C ]   °F
Weather ElementAverageHighLow
Temperature78.8 °F89.1 °F (4:53 pm)69.1 °F (3:53 am)
Dewpoint65.3 °F71.1 °F (9:53 pm)57.9 °F (4:53 pm)
Humidity66.1 %87 % (4:53 am)35 % (4:53 pm)
Barometer29.96 in30.02 in (8:53 am)29.91 in (4:53 pm)
Wind Speed6.9 mph13.8 mph (4:53 pm)
Wind Gust19.6 mph (12:53 pm)
Weather ElementAverage
Visibility10 mi
Wind DirectionSSE (172.6 °)

Weather ElementTotal
Precipitation---
Cooling Degree Days14.1 (Base 65)
Growing Degree Days29.1 (Base 50)
Averaged from 23 records on April 25, 2014
WEATHER CONDITIONS BREAKOUT
WIND DIRECTION BREAKOUT
WEATHER BY HOUR - APRIL 25, 2014
[ °C ]   °F
Local TimeTemperatureDewpointHumidityBarometerVisibilityWind DirectionWind SpeedGust SpeedPrecipitationEventsConditions
1:53 AM73.0 °F68.0 °F84 %29.96 in10.0 miWSW (250°)9.2 mphPartly Cloudy
2:53 AM71.1 °F64.9 °F81 %29.94 in10.0 miWest (260°)3.5 mphPartly Cloudy
3:53 AM69.1 °F64.0 °F84 %29.94 in10.0 miWest (260°)3.5 mphScattered Clouds
4:53 AM69.1 °F64.9 °F87 %29.94 in10.0 miCalmMostly Cloudy
5:53 AM69.1 °F64.9 °F87 %29.96 in10.0 miCalmMostly Cloudy
6:53 AM69.1 °F64.9 °F87 %29.99 in10.0 miSSW (200°)3.5 mphScattered Clouds
7:53 AM71.1 °F66.9 °F87 %30.01 in10.0 miCalmScattered Clouds
8:53 AM73.9 °F66.0 °F76 %30.02 in10.0 miVariable3.5 mphScattered Clouds
9:53 AM78.1 °F64.9 °F64 %30.01 in10.0 miVariable3.5 mphPartly Cloudy
10:53 AM81.0 °F63.0 °F54 %30.01 in10.0 miSW (230°)10.4 mphScattered Clouds
11:53 AM82.9 °F64.0 °F53 %30.01 in10.0 miWest (280°)9.2 mphScattered Clouds
12:53 PM84.9 °F63.0 °F48 %29.99 in10.0 miWSW (250°)6.9 mph19.6 mphMostly Cloudy
1:53 PM87.1 °F62.1 °F43 %29.96 in10.0 miWSW (240°)9.2 mphScattered Clouds
2:53 PM88.0 °F61.0 °F40 %29.95 in10.0 miWSW (240°)12.7 mph18.4 mphMostly Cloudy
3:53 PM88.0 °F60.1 °F39 %29.93 in10.0 miWSW (250°)10.4 mph18.4 mphScattered Clouds
4:53 PM89.1 °F57.9 °F35 %29.91 in10.0 miWSW (250°)13.8 mph17.3 mphScattered Clouds
5:53 PM88.0 °F62.1 °F42 %29.91 in10.0 miNW (320°)10.4 mphScattered Clouds
6:53 PM82.9 °F68.0 °F60 %29.92 in10.0 miSE (130°)10.4 mphScattered Clouds
7:53 PM81.0 °F68.0 °F65 %29.94 in10.0 miSSE (160°)11.5 mphScattered Clouds
8:53 PM80.1 °F70.0 °F71 %29.96 in10.0 miSSE (150°)8.1 mphScattered Clouds
9:53 PM79.0 °F71.1 °F77 %29.97 in10.0 miSSE (150°)6.9 mphPartly Cloudy
10:53 PM79.0 °F71.1 °F77 %29.97 in10.0 miSouth (170°)6.9 mphPartly Cloudy
11:53 PM78.1 °F71.1 °F79 %29.97 in10.0 miSouth (180°)4.6 mphScattered Clouds
Hourly data recorded from KPBI, located miles away from West Palm Beach, Florida







STORIES FROM OUR PARTNERS